Time,TemperatureF,DewpointF,PressureIn,WindDirection,WindDirectionDegrees,WindSpeedMPH,WindSpeedGustMPH,Humidity,HourlyPrecipIn,Conditions,Clouds,dailyrainin,SolarRadiationWatts/m^2,SoftwareType,DateUTC
2013-10-11 00:01:00,43.0,43.0,-100.00,WSW,237,8.0,13.0,100,0.00,,,0.03,0.000000,,2013-10-11 07:01:00,
2013-10-11 00:42:00,43.0,43.0,-100.00,WSW,237,8.0,13.0,100,0.00,,,0.03,0.000000,,2013-10-11 07:42:00,
2013-10-11 00:52:00,43.0,43.0,-100.00,WSW,237,8.0,13.0,100,0.00,,,0.03,0.000000,,2013-10-11 07:52:00,
2013-10-11 01:01:00,43.0,43.0,-100.00,WSW,250,9.0,17.0,100,0.00,,,0.03,0.000000,,2013-10-11 08:01:00,
2013-10-11 01:22:00,43.0,43.0,-100.00,WSW,250,9.0,17.0,100,0.00,,,0.03,0.000000,,2013-10-11 08:22:00,
2013-10-11 01:32:00,43.0,43.0,-100.00,WSW,250,9.0,17.0,100,0.00,,,0.03,0.000000,,2013-10-11 08:32:00,
2013-10-11 01:42:00,43.0,43.0,-100.00,WSW,250,9.0,17.0,100,0.00,,,0.03,0.000000,,2013-10-11 08:42:00,
2013-10-11 01:52:00,43.0,43.0,-100.00,WSW,250,9.0,17.0,100,0.00,,,0.03,0.000000,,2013-10-11 08:52:00,
2013-10-11 02:01:00,43.0,43.0,-100.00,West,260,8.0,18.0,100,0.00,,,0.03,0.000000,,2013-10-11 09:01:00,
2013-10-11 02:22:00,43.0,43.0,-100.00,West,260,8.0,18.0,100,0.00,,,0.03,0.000000,,2013-10-11 09:22:00,
2013-10-11 02:33:00,43.0,43.0,-100.00,West,260,8.0,18.0,100,0.00,,,0.03,0.000000,,2013-10-11 09:33:00,
2013-10-11 02:43:00,43.0,43.0,-100.00,West,260,8.0,18.0,100,0.00,,,0.03,0.000000,,2013-10-11 09:43:00,
2013-10-11 02:54:00,43.0,43.0,-100.00,West,260,8.0,18.0,100,0.00,,,0.03,0.000000,,2013-10-11 09:54:00,
2013-10-11 03:01:00,41.0,41.0,-100.00,WNW,282,12.0,17.0,100,0.00,,,0.03,0.000000,,2013-10-11 10:01:00,
2013-10-11 03:42:00,41.0,41.0,-100.00,WNW,282,12.0,17.0,100,0.00,,,0.03,0.000000,,2013-10-11 10:42:00,
2013-10-11 03:53:00,41.0,41.0,-100.00,WNW,282,12.0,17.0,100,0.00,,,0.03,0.000000,,2013-10-11 10:53:00,
2013-10-11 04:01:00,41.0,41.0,-100.00,West,267,10.0,18.0,100,0.04,,,-99.99,0.000000,,2013-10-11 11:01:00,
2013-10-11 04:42:00,41.0,41.0,-100.00,West,267,10.0,18.0,100,0.04,,,-99.99,0.000000,,2013-10-11 11:42:00,
2013-10-11 04:52:00,41.0,41.0,-100.00,West,267,10.0,18.0,100,0.04,,,-99.99,0.000000,,2013-10-11 11:52:00,
2013-10-11 05:01:00,41.0,41.0,-100.00,West,261,8.0,16.0,100,0.00,,,-99.99,0.000000,,2013-10-11 12:01:00,
2013-10-11 05:42:00,41.0,41.0,-100.00,West,261,8.0,16.0,100,0.00,,,-99.99,0.000000,,2013-10-11 12:42:00,
2013-10-11 05:52:00,41.0,41.0,-100.00,West,261,8.0,16.0,100,0.00,,,-99.99,0.000000,,2013-10-11 12:52:00,
2013-10-11 06:01:00,41.0,41.0,-100.00,West,273,9.0,13.0,100,0.00,,,-99.99,0.000000,,2013-10-11 13:01:00,
2013-10-11 06:43:00,41.0,41.0,-100.00,West,273,9.0,13.0,100,0.00,,,-99.99,0.000000,,2013-10-11 13:43:00,
2013-10-11 06:53:00,41.0,41.0,-100.00,West,273,9.0,13.0,100,0.00,,,-99.99,0.000000,,2013-10-11 13:53:00,
2013-10-11 07:01:00,41.0,41.0,-100.00,West,280,7.0,11.0,100,0.00,,,0.07,0.000000,,2013-10-11 14:01:00,
2013-10-11 07:42:00,41.0,41.0,-100.00,West,280,7.0,11.0,100,0.00,,,0.07,0.000000,,2013-10-11 14:42:00,
2013-10-11 07:52:00,41.0,41.0,-100.00,West,280,7.0,11.0,100,0.00,,,0.07,0.000000,,2013-10-11 14:52:00,
2013-10-11 08:01:00,41.0,41.0,-100.00,WSW,248,9.0,13.0,100,0.01,,,0.08,0.000000,,2013-10-11 15:01:00,
2013-10-11 08:44:00,41.0,41.0,-100.00,WSW,248,9.0,13.0,100,0.01,,,0.08,0.000000,,2013-10-11 15:44:00,
2013-10-11 08:54:00,41.0,41.0,-100.00,WSW,248,9.0,13.0,100,0.01,,,0.08,0.000000,,2013-10-11 15:54:00,
2013-10-11 09:01:00,41.0,41.0,-100.00,WSW,254,8.0,12.0,100,0.00,,,0.08,8.000000,,2013-10-11 16:01:00,
2013-10-11 09:43:00,41.0,41.0,-100.00,WSW,254,8.0,12.0,100,0.00,,,0.08,8.000000,,2013-10-11 16:43:00,
2013-10-11 09:53:00,41.0,41.0,-100.00,WSW,254,8.0,12.0,100,0.00,,,0.08,8.000000,,2013-10-11 16:53:00,
2013-10-11 10:01:00,41.0,41.0,-100.00,West,261,8.0,12.0,100,0.00,,,0.08,49.000000,,2013-10-11 17:01:00,
2013-10-11 10:43:00,41.0,41.0,-100.00,West,261,8.0,12.0,100,0.00,,,0.08,49.000000,,2013-10-11 17:43:00,
2013-10-11 10:53:00,41.0,41.0,-100.00,West,261,8.0,12.0,100,0.00,,,0.08,49.000000,,2013-10-11 17:53:00,
2013-10-11 11:01:00,43.0,43.0,-100.00,WSW,248,7.0,10.0,100,0.00,,,0.08,115.000000,,2013-10-11 18:01:00,
2013-10-11 11:22:00,43.0,43.0,-100.00,WSW,248,7.0,10.0,100,0.00,,,0.08,115.000000,,2013-10-11 18:22:00,
2013-10-11 11:32:00,43.0,43.0,-100.00,WSW,248,7.0,10.0,100,0.00,,,0.08,115.000000,,2013-10-11 18:32:00,
2013-10-11 11:43:00,43.0,43.0,-100.00,WSW,248,7.0,10.0,100,0.00,,,0.08,115.000000,,2013-10-11 18:43:00,
2013-10-11 11:52:00,43.0,43.0,-100.00,WSW,248,7.0,10.0,100,0.00,,,0.08,115.000000,,2013-10-11 18:52:00,
2013-10-11 12:01:00,44.0,44.0,-100.00,NW,306,2.0,10.0,100,0.00,,,0.08,198.000000,,2013-10-11 19:01:00,
2013-10-11 12:22:00,44.0,44.0,-100.00,NW,306,2.0,10.0,100,0.00,,,0.08,198.000000,,2013-10-11 19:22:00,
2013-10-11 12:33:00,44.0,44.0,-100.00,NW,306,2.0,10.0,100,0.00,,,0.08,198.000000,,2013-10-11 19:33:00,
2013-10-11 12:43:00,44.0,44.0,-100.00,NW,306,2.0,10.0,100,0.00,,,0.08,198.000000,,2013-10-11 19:43:00,
2013-10-11 12:52:00,44.0,44.0,-100.00,NW,306,2.0,10.0,100,0.00,,,0.08,198.000000,,2013-10-11 19:52:00,
2013-10-11 13:01:00,45.0,45.0,-100.00,SW,228,3.0,5.0,99,0.00,,,0.07,118.000000,,2013-10-11 20:01:00,
2013-10-11 13:43:00,45.0,45.0,-100.00,SW,228,3.0,5.0,99,0.00,,,0.07,118.000000,,2013-10-11 20:43:00,
2013-10-11 13:53:00,45.0,45.0,-100.00,SW,228,3.0,5.0,99,0.00,,,0.07,118.000000,,2013-10-11 20:53:00,
2013-10-11 14:01:00,45.0,45.0,-100.00,WNW,294,2.0,10.0,99,0.00,,,0.06,117.000000,,2013-10-11 21:01:00,
2013-10-11 14:43:00,45.0,45.0,-100.00,WNW,294,2.0,10.0,99,0.00,,,0.06,117.000000,,2013-10-11 21:43:00,
2013-10-11 14:55:00,45.0,45.0,-100.00,WNW,294,2.0,10.0,99,0.00,,,0.06,117.000000,,2013-10-11 21:55:00,
2013-10-11 15:01:00,45.0,44.0,-100.00,West,264,7.0,10.0,98,0.00,,,0.05,95.000000,,2013-10-11 22:01:00,
2013-10-11 15:24:00,45.0,44.0,-100.00,West,264,7.0,10.0,98,0.00,,,0.05,95.000000,,2013-10-11 22:24:00,
2013-10-11 15:33:00,45.0,44.0,-100.00,West,264,7.0,10.0,98,0.00,,,0.05,95.000000,,2013-10-11 22:33:00,
2013-10-11 15:43:00,45.0,44.0,-100.00,West,264,7.0,10.0,98,0.00,,,0.05,95.000000,,2013-10-11 22:43:00,
2013-10-11 15:54:00,45.0,44.0,-100.00,West,264,7.0,10.0,98,0.00,,,0.05,95.000000,,2013-10-11 22:54:00,
2013-10-11 16:01:00,45.0,43.0,-100.00,WSW,243,6.0,12.0,93,0.00,,,0.05,121.000000,,2013-10-11 23:01:00,
2013-10-11 16:42:00,45.0,43.0,-100.00,WSW,243,6.0,12.0,93,0.00,,,0.05,121.000000,,2013-10-11 23:42:00,
2013-10-11 16:53:00,45.0,43.0,-100.00,WSW,243,6.0,12.0,93,0.00,,,0.05,121.000000,,2013-10-11 23:53:00,
2013-10-11 17:01:00,45.0,43.0,-100.00,WNW,282,3.0,10.0,93,0.00,,,0.05,93.000000,,2013-10-12 00:01:00,
2013-10-11 17:22:00,45.0,43.0,-100.00,WNW,282,3.0,10.0,93,0.00,,,0.05,93.000000,,2013-10-12 00:22:00,
2013-10-11 17:32:00,45.0,43.0,-100.00,WNW,282,3.0,10.0,93,0.00,,,0.05,93.000000,,2013-10-12 00:32:00,
2013-10-11 17:42:00,45.0,43.0,-100.00,WNW,282,3.0,10.0,93,0.00,,,0.05,93.000000,,2013-10-12 00:42:00,
2013-10-11 17:53:00,45.0,43.0,-100.00,WNW,282,3.0,10.0,93,0.00,,,0.05,93.000000,,2013-10-12 00:53:00,
2013-10-11 18:01:00,44.0,42.0,-100.00,West,276,6.0,9.0,92,0.00,,,0.05,115.000000,,2013-10-12 01:01:00,
2013-10-11 18:42:00,44.0,42.0,-100.00,West,276,6.0,9.0,92,0.00,,,0.05,115.000000,,2013-10-12 01:42:00,
2013-10-11 18:52:00,44.0,42.0,-100.00,West,276,6.0,9.0,92,0.00,,,0.05,115.000000,,2013-10-12 01:52:00,
2013-10-11 19:01:00,43.0,40.0,-100.00,West,264,6.0,12.0,90,0.00,,,0.05,64.000000,,2013-10-12 02:01:00,
2013-10-11 19:42:00,43.0,40.0,-100.00,West,264,6.0,12.0,90,0.00,,,0.05,64.000000,,2013-10-12 02:42:00,
2013-10-11 19:52:00,43.0,40.0,-100.00,West,264,6.0,12.0,90,0.00,,,0.05,64.000000,,2013-10-12 02:52:00,
2013-10-11 20:01:00,43.0,42.0,-100.00,West,264,8.0,11.0,95,0.00,,,0.05,17.000000,,2013-10-12 03:01:00,
2013-10-11 20:44:00,43.0,42.0,-100.00,West,264,8.0,11.0,95,0.00,,,0.05,17.000000,,2013-10-12 03:44:00,
2013-10-11 20:54:00,43.0,42.0,-100.00,West,264,8.0,11.0,95,0.00,,,0.05,17.000000,,2013-10-12 03:54:00,
2013-10-11 21:01:00,41.0,41.0,-100.00,WNW,292,9.0,14.0,100,0.00,,,0.05,0.000000,,2013-10-12 04:01:00,
2013-10-11 21:44:00,41.0,41.0,-100.00,WNW,292,9.0,14.0,100,0.00,,,0.05,0.000000,,2013-10-12 04:44:00,
2013-10-11 21:54:00,41.0,41.0,-100.00,WNW,292,9.0,14.0,100,0.00,,,0.05,0.000000,,2013-10-12 04:54:00,
2013-10-11 22:01:00,42.0,41.0,-100.00,WNW,284,8.0,14.0,97,0.00,,,0.05,0.000000,,2013-10-12 05:01:00,
2013-10-11 22:23:00,42.0,41.0,-100.00,WNW,284,8.0,14.0,97,0.00,,,0.05,0.000000,,2013-10-12 05:23:00,
2013-10-11 22:34:00,42.0,41.0,-100.00,WNW,284,8.0,14.0,97,0.00,,,0.05,0.000000,,2013-10-12 05:34:00,
2013-10-11 22:43:00,42.0,41.0,-100.00,WNW,284,8.0,14.0,97,0.00,,,0.05,0.000000,,2013-10-12 05:43:00,
2013-10-11 22:52:00,42.0,41.0,-100.00,WNW,284,8.0,14.0,97,0.00,,,0.05,0.000000,,2013-10-12 05:52:00,
2013-10-11 23:01:00,42.0,40.0,-100.00,WSW,253,6.0,10.0,92,0.00,,,0.05,0.000000,,2013-10-12 06:01:00,
2013-10-11 23:42:00,42.0,40.0,-100.00,WSW,253,6.0,10.0,92,0.00,,,0.05,0.000000,,2013-10-12 06:42:00,
2013-10-11 23:52:00,42.0,40.0,-100.00,WSW,253,6.0,10.0,92,0.00,,,0.05,0.000000,,2013-10-12 06:52:00,